[[{"header":{"parameterUnit":"m.s-1","parameterCategory":1,"la1":30.2991,"la2":30.254,"lo1":-89.0895,"lo2":-89.0444,"dy":0.0017,"dx":0.0017,"nx":28,"ny":28,"refTime":"2025-04-03T03:00:00:Z","depth":0,"parameterNumber":2,"parameterNumberName":"U-component_of_WINDS"},"data":[0,0,0,0,0,0,0,0,0,0,0,0,0,0,0,0,0,0,0,0,0,0,0,0,0,0,0,0,0,0,0,0,0,0,0,0,0,0,0,0,0,0,0,0,0,0,0,0,0,0,0,0,0,0,0,0,0,0,-5.7846,-5.7847,0,-5.7942,-5.7943,-5.7944,-5.7916,-5.7914,-5.7912,-5.791,-5.8007,-5.8011,-5.8015,0,0,0,0,0,0,0,0,0,0,0,0,0,-5.7639,-5.7643,-5.7846,-5.7847,-5.7849,-5.7942,-5.7943,-5.7944,-5.7917,-5.7914,-5.7912,-5.791,-5.8005,-5.801,-5.8016,0,0,0,0,0,0,0,0,0,0,0,0,0,-5.7731,-5.7645,-5.7846,-5.7846,-5.7847,-5.7941,-5.7943,-5.7944,-5.7917,-5.7914,-5.7911,-5.7908,-5.8004,-5.801,-5.8016,-5.8116,0,0,-5.8037,-5.8039,0,0,0,0,0,0,0,0,-5.7726,-5.7739,-5.7845,-5.7846,-5.7847,-5.7914,-5.7905,-5.8002,-5.7918,-5.789,-5.791,-5.7907,-5.7978,-5.7987,-5.8011,-5.812,-5.8124,-5.8037,-5.8041,-5.8044,-5.8046,0,0,0,0,0,0,0,-5.772,-5.7735,-5.7884,-5.7846,-5.7848,-5.7841,-5.7851,-5.7923,-5.795,-5.7893,-5.7891,-5.7903,-5.7978,-5.8005,-5.8013,-5.8126,-5.8037,-5.8043,-5.8047,-5.8049,-5.8322,-5.8325,0,0,0,0,0,0,-5.7713,-5.773,-5.7881,-5.7887,-5.7778,-5.7847,-5.7858,-5.7896,-5.7949,-5.7954,-5.7905,-5.7901,-5.7995,-5.8005,-5.8016,-5.8135,-5.8044,-5.805,-5.8054,-5.8318,-5.8322,-5.8326,0,0,0,0,0,0,-5.7708,-5.7727,-5.7877,-5.7808,-5.7826,-5.7854,-5.7896,-5.7899,-5.7925,-5.7958,-5.7962,-5.7927,-5.7993,-5.8007,-5.8091,-5.8138,-5.8053,-5.8059,-5.8314,-5.832,-5.8324,-5.8374,0,0,0,0,0,0,-5.7703,-5.7725,-5.7763,-5.7809,-5.783,-5.7951,-5.7899,-5.7903,-5.7937,-5.7933,-5.798,-5.7985,-5.7992,-5.8082,-5.8098,-5.8145,-5.8064,-5.831,-5.8317,-5.8323,-5.8368,-5.838,-5.839,0,0,0,0,0,-5.7695,-5.7773,-5.7765,-5.7783,-5.7878,-5.7953,-5.7965,-5.7972,-5.7941,-5.7979,-5.8,-5.7983,-5.8131,-5.8091,-5.8109,-5.8159,-5.8307,-5.8315,-5.8322,-5.8363,-5.8377,-5.839,0,0,0,0,0,0,-5.7731,-5.7779,-5.7771,-5.7866,-5.7906,-5.7948,-5.7996,-5.7987,-5.8036,-5.803,-5.8036,-5.8047,-5.8133,-5.8155,-5.8109,-5.8258,-5.8215,-5.8226,-5.824,-5.8254,-5.8264,-5.8256,-5.807,0,0,0,0,0,-5.775,-5.7807,-5.7846,-5.7926,-5.7947,-5.7969,-5.8001,-5.8003,-5.8045,-5.8061,-5.8089,-5.8129,-5.8185,-5.8221,-5.8274,-5.8373,-5.8382,-5.8416,-5.8427,-5.8436,-5.8444,-5.8497,-5.8513,-5.835,-5.835,-5.835,0,0,-5.7789,-5.7823,-5.7858,-5.7934,-5.7965,-5.8024,-5.7983,-5.8046,-5.809,-5.8071,-5.8151,-5.8174,-5.822,-5.8311,-5.8353,-5.8332,-5.8492,-5.8445,-5.8452,-5.8456,-5.8507,-5.8522,-5.8535,-5.8355,-5.8354,-5.8353,0,0,-5.789,-5.7922,-5.7992,-5.8024,-5.8073,-5.8087,-5.8104,-5.8149,-5.8163,-5.8245,-5.8232,-5.8284,-5.838,-5.8413,-5.8442,-5.8559,-5.8544,-5.8576,-5.8631,-5.8683,-5.8696,-5.8707,-5.8746,-5.8761,-5.8585,-5.8585,-5.8585,0,-5.7932,-5.802,-5.8028,-5.8093,-5.8127,-5.8115,-5.8185,-5.8216,-5.8279,-5.8302,-5.8279,-5.8399,-5.8429,-5.8528,-5.8556,-5.8581,-5.86,-5.8568,-5.8693,-5.8705,-5.8715,-5.8753,-5.8768,-5.8589,-5.8588,-5.8588,-5.8588,0,-5.8069,-5.8131,-5.8181,-5.8243,-5.8282,-5.835,-5.8368,-5.8407,-5.8407,-5.8424,-5.8507,-5.8544,-5.8603,-5.8628,-5.8628,-5.8727,-5.8712,-5.8692,-5.8647,-5.8734,-5.8769,-5.8784,-5.8593,-5.8592,-5.8591,-5.859,0,0,-5.8191,-5.8258,-5.8276,-5.8304,-5.8358,-5.8405,-5.8473,-5.8532,-5.8565,-5.861,-5.8665,-5.8748,-5.8729,-5.8763,-5.8767,-5.8813,-5.8901,-5.8786,-5.8787,-5.8804,-5.901,-5.9023,-5.904,-5.8893,-5.8896,-5.8899,-5.9005,0,-5.8294,-5.8412,-5.8423,-5.8528,-5.8585,-5.8575,-5.8634,-5.8673,-5.8692,-5.8742,-5.8763,-5.882,-5.8793,-5.8812,-5.8858,-5.888,-5.8941,-5.8873,-5.8943,-5.8946,-5.8928,-5.9059,-5.9072,-5.9171,-5.902,-5.9022,-5.9024,0,-5.843,-5.8479,-5.859,-5.8637,-5.8661,-5.8713,-5.8768,-5.8818,-5.8862,-5.8873,-5.8911,-5.891,-5.8979,-5.8936,-5.903,-5.8984,-5.9014,-5.903,-5.9034,-5.9037,-5.8987,-5.9063,-5.9203,-5.9217,-5.9046,-5.9044,-5.9043,0,-5.8504,-5.8599,-5.8678,-5.8702,-5.8759,-5.8796,-5.8821,-5.8863,-5.8898,-5.8948,-5.897,-5.9027,-5.9057,-5.9101,-5.9115,-5.9082,-5.9209,-5.9167,-5.9218,-5.9217,-5.9241,-5.9239,-5.9385,-5.9267,-5.9266,-5.9266,-5.9266,0,-5.8616,-5.8684,-5.8712,-5.876,-5.8836,-5.8848,-5.8923,-5.8947,-5.8985,-5.9037,-5.9034,-5.9083,-5.91,-5.9152,-5.9164,-5.9239,-5.9254,-5.9263,-5.9265,-5.9262,-5.926,-5.9278,-5.9271,-5.927,-5.9269,-5.9268,-5.9268,0,-5.8711,-5.8732,-5.8817,-5.8865,-5.8878,-5.8932,-5.8972,-5.9019,-5.9038,-5.9104,-5.912,-5.915,-5.9211,-5.9231,-5.9305,-5.9313,-5.9401,-5.9398,-5.9385,-5.9384,-5.9433,-5.9427,-5.9593,-5.9615,-5.9485,-5.9487,-5.9488,0,-5.8779,-5.8831,-5.8884,-5.8919,-5.8946,-5.9003,-5.9039,-5.9054,-5.9092,-5.9148,-5.9188,-5.9249,-5.9298,-5.9396,-5.9424,-5.9481,-5.9478,-5.9532,-5.9486,-5.9481,-5.9475,-5.947,-5.9475,-5.954,-5.9541,-5.9542,-5.9543,0,-5.8897,-5.8906,-5.8958,-5.9015,-5.9058,-5.9103,-5.9147,-5.9176,-5.9198,-5.9241,-5.9304,-5.9342,-5.9418,-5.9478,-5.9537,-5.9562,-5.9556,-5.9558,-5.9572,-5.9567,-5.9557,-5.9561,-5.9405,-5.9553,-5.9552,-5.9551,-5.9551,-5.955,-5.8978,-5.9024,-5.9069,-5.9127,-5.9162,-5.9204,-5.9249,-5.9275,-5.9328,-5.9391,-5.9397,-5.9465,-5.951,-5.9587,-5.9617,-5.967,-5.9654,-5.9675,-5.968,-5.9684,-5.9686,-5.9552,-5.9681,-5.968,-5.968,-5.968,-5.968,0,-5.9094,-5.9123,-5.9177,-5.9238,-5.9285,-5.9277,-5.9326,-5.9364,-5.9424,-5.9467,-5.9516,-5.9588,-5.9647,-5.9681,-5.974,-5.9776,-5.9774,-5.979,-5.9786,-5.9792,-5.9698,-5.9679,-5.979,-5.979,-5.979,-5.979,-5.979,-5.979,-5.9159,-5.9235,-5.925,-5.9343,-5.9372,-5.9438,-5.9466,-5.9504,-5.9538,-5.9619,-5.9668,-5.9691,-5.973,-5.9792,-5.9846,-5.9854,-5.9875,-5.9892,-5.9899,-5.981,-5.9798,-5.9787,-5.9769,-5.9897,-5.9898,-5.9987,-5.9988,-5.9988]},{"header":{"parameterUnit":"m.s-1","parameterCategory":1,"la1":30.2991,"la2":30.254,"lo1":-89.0895,"lo2":-89.0444,"dy":0.0017,"dx":0.0017,"nx":28,"ny":28,"refTime":"2025-04-03T03:00:00:Z","depth":0,"parameterNumber":3,"parameterNumberName":"V-component_of_WINDS"},"data":[0,0,0,0,0,0,0,0,0,0,0,0,0,0,0,0,0,0,0,0,0,0,0,0,0,0,0,0,0,0,0,0,0,0,0,0,0,0,0,0,0,0,0,0,0,0,0,0,0,0,0,0,0,0,0,0,0,0,3.6244,3.6245,0,3.636,3.6361,3.6363,3.6387,3.6386,3.6385,3.6384,3.65,3.6504,3.6508,0,0,0,0,0,0,0,0,0,0,0,0,0,3.6041,3.6044,3.6243,3.6245,3.6246,3.636,3.6361,3.6363,3.6387,3.6386,3.6385,3.6384,3.6499,3.6503,3.6508,0,0,0,0,0,0,0,0,0,0,0,0,0,3.614,3.6045,3.6243,3.6272,3.6276,3.6359,3.6361,3.6363,3.6387,3.6386,3.6385,3.6384,3.6497,3.6503,3.6509,3.657,0,0,3.6526,3.6529,0,0,0,0,0,0,0,0,3.6134,3.6147,3.6266,3.627,3.6275,3.6358,3.6332,3.6433,3.6388,3.6345,3.6384,3.6383,3.6453,3.6463,3.6487,3.6576,3.6581,3.6527,3.653,3.6533,3.6534,0,0,0,0,0,0,0,3.6127,3.6142,3.6289,3.6268,3.6273,3.6279,3.6292,3.6351,3.6405,3.6349,3.6351,3.6364,3.6455,3.6482,3.649,3.6582,3.6527,3.6532,3.6535,3.6538,3.673,3.6732,0,0,0,0,0,0,3.6116,3.6137,3.6286,3.6293,3.62,3.6284,3.6298,3.6332,3.6404,3.6414,3.6365,3.6365,3.6472,3.6483,3.6494,3.6574,3.6533,3.6538,3.6542,3.6729,3.6731,3.6733,0,0,0,0,0,0,3.6111,3.6129,3.6281,3.6215,3.6235,3.6289,3.6327,3.6335,3.6362,3.6417,3.6426,3.6382,3.6472,3.6486,3.6552,3.6578,3.6541,3.6546,3.6727,3.6729,3.6732,3.6731,0,0,0,0,0,0,3.6105,3.6127,3.6151,3.6216,3.6239,3.6337,3.6329,3.6338,3.6372,3.6373,3.6436,3.6445,3.6472,3.6543,3.6558,3.6585,3.6551,3.6725,3.6728,3.6731,3.6729,3.6734,3.6737,0,0,0,0,0,3.6098,3.6145,3.6152,3.617,3.627,3.6339,3.6352,3.6383,3.6374,3.6399,3.6435,3.6443,3.6573,3.655,3.6567,3.6596,3.6723,3.6727,3.6731,3.6728,3.6733,3.6737,0,0,0,0,0,0,3.608,3.6154,3.6163,3.6232,3.6279,3.6343,3.6375,3.6387,3.6437,3.6435,3.6471,3.6485,3.655,3.6579,3.6552,3.6661,3.6648,3.6655,3.664,3.6645,3.6649,3.6641,3.6556,0,0,0,0,0,3.6084,3.6134,3.6196,3.6251,3.6275,3.6321,3.6352,3.6372,3.6422,3.6442,3.6482,3.6529,3.6582,3.6615,3.6665,3.6734,3.6749,3.6762,3.6766,3.6769,3.6775,3.6816,3.6824,3.6745,3.6745,3.6745,0,0,3.6093,3.6139,3.6169,3.6249,3.6288,3.6339,3.6337,3.6391,3.643,3.6449,3.6515,3.6547,3.6602,3.6671,3.6703,3.6697,3.6801,3.6774,3.6776,3.678,3.6821,3.6828,3.6835,3.6747,3.6747,3.6746,0,0,3.6136,3.6175,3.6227,3.6267,3.6327,3.6358,3.6371,3.6433,3.6456,3.6523,3.654,3.6586,3.6674,3.6713,3.6745,3.6806,3.6816,3.6821,3.6842,3.6882,3.6888,3.6894,3.6918,3.6926,3.6827,3.6827,3.6827,0,3.6139,3.6218,3.6252,3.6307,3.6342,3.6364,3.6418,3.6454,3.6527,3.6551,3.6544,3.6657,3.6696,3.6775,3.6791,3.6815,3.6831,3.6815,3.6885,3.6891,3.6897,3.692,3.6928,3.6827,3.6827,3.6827,3.6827,0,3.622,3.6274,3.6309,3.6382,3.6421,3.6474,3.6517,3.6552,3.657,3.6602,3.6671,3.6718,3.678,3.68,3.6817,3.6883,3.6878,3.6877,3.6865,3.6904,3.6927,3.6936,3.6828,3.6828,3.6828,3.6828,0,0,3.6253,3.6346,3.6358,3.6393,3.6462,3.6505,3.656,3.6622,3.6653,3.6703,3.6751,3.6826,3.6827,3.6863,3.6884,3.6919,3.6968,3.6915,3.6917,3.6925,3.7046,3.7048,3.7057,3.6975,3.6976,3.6978,3.7043,0,3.6306,3.6406,3.644,3.6523,3.6576,3.6599,3.6647,3.6695,3.6726,3.6775,3.6809,3.6863,3.6859,3.6882,3.6917,3.6954,3.6993,3.695,3.702,3.7022,3.7007,3.7069,3.707,3.7128,3.7051,3.7053,3.7054,0,3.638,3.6435,3.6524,3.6589,3.6612,3.6655,3.6717,3.6763,3.6818,3.6839,3.688,3.69,3.6959,3.6943,3.7025,3.6995,3.7026,3.7049,3.7052,3.706,3.7041,3.7081,3.7148,3.7157,3.7068,3.7067,3.7066,0,3.6399,3.6493,3.656,3.6588,3.6666,3.6696,3.6729,3.6783,3.682,3.6873,3.6898,3.6956,3.6989,3.7034,3.7069,3.7053,3.7149,3.7135,3.7169,3.7168,3.7188,3.7187,3.7263,3.7205,3.7205,3.7205,3.7205,0,3.6455,3.6509,3.657,3.6611,3.6673,3.6711,3.6771,3.6805,3.6854,3.6902,3.6925,3.697,3.7013,3.7064,3.7091,3.7157,3.717,3.7189,3.7196,3.7188,3.7186,3.721,3.7207,3.7208,3.7207,3.7207,3.7206,0,3.6486,3.6528,3.6603,3.6671,3.669,3.6733,3.6791,3.6832,3.6865,3.6927,3.6943,3.6995,3.7056,3.7096,3.7172,3.7191,3.7264,3.7268,3.7246,3.7249,3.7282,3.7279,3.7376,3.7392,3.7323,3.7323,3.7324,0,3.652,3.6563,3.6637,3.6672,3.6706,3.6761,3.68,3.6839,3.6878,3.6946,3.6979,3.7042,3.7095,3.7191,3.7235,3.7295,3.7303,3.7333,3.7312,3.7303,3.7306,3.7304,3.7309,3.7336,3.7337,3.7337,3.7338,0,3.6576,3.6596,3.6651,3.6714,3.676,3.6811,3.6862,3.6889,3.6938,3.698,3.7044,3.7085,3.7166,3.7228,3.7293,3.7327,3.7341,3.7344,3.7356,3.7349,3.7335,3.7345,3.7257,3.7342,3.7342,3.7341,3.7341,3.7341,3.6611,3.6651,3.6711,3.6772,3.6815,3.6863,3.6906,3.6946,3.7001,3.7071,3.709,3.7158,3.7214,3.7302,3.7338,3.7391,3.7387,3.7403,3.7407,3.7411,3.7413,3.7325,3.7402,3.7402,3.7402,3.7402,3.7402,0,3.6671,3.6711,3.6767,3.6839,3.6888,3.6898,3.6956,3.6996,3.7056,3.7107,3.716,3.7234,3.7296,3.7346,3.741,3.7443,3.7451,3.7458,3.7457,3.7465,3.7411,3.7396,3.7451,3.7451,3.7451,3.7451,3.7451,3.7451,3.6707,3.6777,3.6804,3.6896,3.6936,3.7003,3.7036,3.7081,3.7123,3.7206,3.7258,3.7291,3.7343,3.7411,3.7468,3.7481,3.7505,3.7511,3.7526,3.7474,3.7469,3.7463,3.745,3.7515,3.7515,3.7576,3.7576,3.7577]}]]